Other Public Products
Issued by NWS Grand Forks, ND

Home | Current Version | Previous Version | Text Only | Print | Product List | Glossary Off
Versions: 1 2 3 4 5 6 7 8 9 10 11 12 13 14 15 16 17 18 19 20 21 22 23 24 25 26 27 28 29 30 31 32 33 34 35 36 37 38 39 40 41 42 43 44 45 46 47 48 49 50

000
FPUS83 KFGF 102231
OPUFGF
PRAIRIE TO PINES WEATHER ROUNDUP
NATIONAL WEATHER SERVICE EASTERN NORTH DAKOTA/GRAND FORKS ND
500 PM CDT THU JUL 10 2014

 **SATELLITE DATA USED TO AUGMENT SKY COVER AT AUTOMATED STATIONS**
 *****  WEATHER ACROSS EASTERN NORTH DAKOTA  *****

CITY           SKY/WX    TMP DP  RH WIND       PRES   REMARKS
GRAND FORKS    CLOUDY    80  60  50 SE14      29.84F
GRAND FORKS AF CLOUDY    79  63  57 SE12      29.85F
GRAND CITY NWS   N/A     81 N/A N/A SE20        N/A
BUXTON           N/A     80  66  63 SE10        N/A
DEVILS LAKE    PTSUNNY   79  61  53 S18G25    29.81F
FARGO          CLOUDY    82  61  48 S13G26    29.85F
WAHPETON ARPT  CLOUDY    79  59  50 S13       29.87S
$$

 *****  WEATHER ACROSS CENTRAL AND WESTERN NORTH DAKOTA  *****

CITY           SKY/WX    TMP DP  RH WIND       PRES   REMARKS
JAMESTOWN      CLOUDY    75  63  66 S8        29.84F
BISMARCK       SUNNY     78  65  63 SE9       29.81F
MINOT          SUNNY     81  64  56 S14       29.76F
MINOT AFB      SUNNY     80  65  61 S14       29.76S
GARRISON         N/A     79  66  64 S10       29.79F
WILLISTON      MOSUNNY   91  59  33 S9        29.71F HX  90
DICKINSON      SUNNY     82  66  58 S13       29.79F
HETTINGER      SUNNY     81  65  58 S7        29.83F
$$

 *****  OTHER OBSERVATIONS NORTHEAST NORTH DAKOTA  *****

CITY           SKY/WX    TMP DP  RH WIND       PRES   REMARKS
WALHALLA       FAIR      81  64  57 S16G22      N/A
LANGDON        FAIR      79  63  57 S17       29.83S
CAVALIER       FAIR      81  63  54 S15       29.81F
GRAFTON        FAIR      81  61  50 S18       29.83F
CANDO          FAIR      77  64  65 S20       29.81F
FORT TOTTEN      N/A     77  61  56 S12       29.95S
ROLLA            N/A     77  63  61 S18G26    29.81F
RUGBY          FAIR      77  64  65 S13G20    29.79S
 ***** THE ABOVE OBSERVATIONS ARE NON NWS ARE NOT QUALITY
        CONTROLLED AND MAY MIS-REPORT RAIN FOR SNOW...
$$

 *****  OTHER OBSERVATIONS SOUTHEAST NORTH DAKOTA *****

CITY           SKY/WX    TMP DP  RH WIND       PRES   REMARKS
COOPERSTOWN    NOT AVBL
VALLEY CITY    FAIR      75  66  73 S12G20    29.85F
OAKES          NOT AVBL
GWINNER        MOCLDY    75  70  83 S6        29.87F
SHEYENNE NWR     N/A     77  65  67 S7        29.95
BUFFALO          N/A     77  58  50 S10         N/A
WYNDMERE       NOT AVBL
 ***** THE ABOVE OBSERVATIONS ARE NON NWS ARE NOT QUALITY
       CONTROLLED AND MAY MIS-REPORT RAIN FOR SNOW...
$$

  *****  WEATHER ACROSS NORTHERN MINNESOTA  *****

CITY           SKY/WX    TMP DP  RH WIND       PRES   REMARKS
FLAG ISLAND    PTSUNNY   72  63  73 S9        29.88F
WARROAD        PTSUNNY   77  61  57 S5        29.90S
ROSEAU         PTSUNNY   75  61  60 S13       29.89S
HALLOCK        CLOUDY    79  61  53 S10       29.84F
THF RVR FALLS  CLOUDY    77  59  53 SE10      29.88F
HALSTAD          N/A     79  59  50 SE12        N/A
FOSSTON        CLOUDY    79  63  57 SE9       29.91F
BAUDETTE       MOSUNNY   77  57  50 S9        29.93F
WASKISH        MOSUNNY   79  57  47 S3        29.93F
CROOKSTON      CLOUDY    79  61  53 S12       29.87S
$$
  *****  WEATHER ACROSS CENTRAL AND WEST MINNESOTA  *****

CITY           SKY/WX    TMP DP  RH WIND       PRES   REMARKS
BEMIDJI        CLOUDY    76  59  55 S7        29.93F
PARK RAPIDS    CLOUDY    80  60  50 S14       29.94F
WADENA         PTSUNNY   77  63  61 SE8       29.93F
DETROIT LAKES  PTSUNNY   77  61  57 S13       29.92F
MOORHEAD       CLOUDY    81  63  54 SE10      29.87S
FERGUS FALLS   CLOUDY    79  61  53 S12       29.88F
ELBOW LAKE     NOT AVBL
MORRIS MN      CLOUDY    79  66  65 S9        29.89F
STAPLES        CLOUDY    79  61  53 S8        29.94F
WHEATON        CLOUDY    77  63  61 SE8       29.89S
$$
  *****  WEATHER ELSEWHERE ACROSS MINNESOTA  *****

CITY           SKY/WX    TMP DP  RH WIND       PRES   REMARKS
DULUTH         MOSUNNY   75  58  55 SE9       30.00F
INTRNTL FALLS  MOSUNNY   79  52  38 S9        29.93F
ELY            SUNNY     77  52  41 SW6       29.98S
CLOQUET        MOSUNNY   79  54  41 SW9       29.99F
BRAINERD       CLOUDY    84  61  45 S8        29.97F
HIBBING        SUNNY     80  51  36 S8G17     29.97F
ALEXANDRIA     PTSUNNY   80  62  54 S15       29.94F
SAINT CLOUD    CLOUDY    84  60  44 S9G17     29.96F
MINNEAPOLIS    CLOUDY    84  57  39 S14G20    29.99S
$$

  *****  WEATHER ACROSS SOUTH DAKOTA  *****

CITY           SKY/WX    TMP DP  RH WIND       PRES   REMARKS
SIOUX FALLS    CLOUDY    81  64  56 S17G23    29.93F
BROOKINGS      NOT AVBL
WATERTOWN      CLOUDY    76  66  71 S15       29.88F
HURON          LGT RAIN  77  67  71 SE8       29.84F
SISSETON         N/A     79  66  64 S10       29.86S
ABERDEEN       LGT RAIN  74  68  81 E8        29.84F
MITCHELL       PTSUNNY   84  66  54 SE20G25   29.85F
PIERRE         CLOUDY    82  66  58 S12       29.79F
MOBRIDGE       MOSUNNY   80  67  64 S15       29.78F
RAPID CITY     PTSUNNY   72  64  76 W9        29.90R
$$

  *****  SOME WEATHER IN NEARBY STATES *****

CITY           SKY/WX    TMP DP  RH WIND       PRES   REMARKS
GLASGOW MT     SUNNY     90  53  28 N17       29.76R
GREAT FALLS MT SUNNY     90  34  13 SW14G21   29.82F
CHEYENNE WY    PTSUNNY   86  43  22 SW16      30.06F
SCOTTSBLUFF NE PTSUNNY   88  50  27 SE14      29.87F
OMAHA NE       PTSUNNY   85  65  51 S18G28    29.98R
DES MOINES IA  MOSUNNY   83  57  41 SE15      30.05S
DAVENPORT IA   PTSUNNY   79  58  48 S8        30.11F
CHICAGO IL     MOSUNNY   76  52  43 E12       30.14F
EAU CLAIRE WI  MOSUNNY   81  62  52 S10G16    30.02F
LA CROSSE WI   SUNNY     83  62  49 S13       30.04F HAZE
$$

  *****  SOME NATIONAL WEATHER *****

CITY           SKY/WX    TMP DP  RH WIND       PRES   REMARKS
LA GUARDIA NY  MOSUNNY   81  59  47 NE8       30.08S
RALEIGH NC     CLOUDY    78  69  73 NE8       30.06S THUNDER
ATLANTA GA     PTSUNNY   84  69  60 SW9       30.03F
NEW ORLEANS LA CLOUDY    82  73  74 S5        30.05F
OKLAHOMA CITY  PTSUNNY   91  69  48 SE13      29.95F HX  96
ALBUQUERQUE NM MOSUNNY   91  48  22 VRB7      30.06F
SALT LAKE CITY PTSUNNY   91  51  25 W9        29.92F
LOS ANGELES CA MOSUNNY   75  61  61 W16       29.92F
BOISE ID       SUNNY     95  46  18 NW3       29.85F HX  91
SEATTLE WA     MOSUNNY   81  51  35 NW9       29.94S
$$

*** WEATHER ACROSS MANITOBA...SASKATCHEWAN AND ONTARIO ***
                ***ONTARIO***

CITY           SKY/WX    TMP DP  RH WIND       PRES   REMARKS
GERALDTON      PTSUNNY   73  50  43 SW12      30.00F
THUNDER BAY    MOSUNNY   73  54  49 SW18G24   30.00F
SIOUX LOOKOUT  PTSUNNY   77  52  41 SW12      29.92F
TORONTO        PTSUNNY   68  48  49 SE3       30.16F
BIG TROUT LK   PTSUNNY   75  54  46 SW7       29.80F
PICKLE LAKE    PTSUNNY   77  46  33 SW14G23   29.89F
DRYDEN         SUNNY     79  48  34 SW14      29.92F
KENORA         PTSUNNY   75  55  50 S10       29.92F
$$
                *** MANITOBA***

CITY           SKY/WX    TMP DP  RH WIND       PRES   REMARKS
BRANDON        MOSUNNY   82  61  47 S20       29.73F
DAUPHIN        SUNNY     84  63  48 SW17G25   29.63S
ISLAND LAKE    PTSUNNY   79  55  44 SW9       29.70F
PILOT MOUND      N/A     75  64  69 S15         N/A
THE PAS        MOSUNNY   79  59  50 W15G22    29.58R
THOMPSON       LGT RAIN  66  64  94 SE8       29.54F
WINNIPEG       PTSUNNY   82  63  51 S17G28    29.80F
LYNN LAKE      PTSUNNY   63  59  88 W16G26    29.47F
CHURCHILL      PTSUNNY   57  52  82 SE16G23   29.77S
GILLAM         CLOUDY    70  61  73 SE8       29.66F
$$
                ***SASKATCHEWAN***

CITY           SKY/WX    TMP DP  RH WIND       PRES   REMARKS
ESTEVAN        PTSUNNY   86  63  45 SW8       29.71F
KINDERSLEY     MOSUNNY   75  46  35 W7        29.86R
LLOYDMINSTER   PTSUNNY   64  46  52 W21G28    29.81R
PRINCE ALBERT  MOSUNNY   75  46  35 NW14G22   29.71S
REGINA         SUNNY     77  59  53 N17       29.77R



USA.gov is the U.S. government's official web portal to all federal, state and local government web resources and services.